sat.trackr.live / text

‹ back to catalog

GXIBA-1

NORAD 67685 · 1998-067YB

PAYLOAD ACTIVE UNKNOWN

§ Identity

Operator
Country
MEX
Launch date
1998-11-20
Launch site
TYMSC
Launch vehicle
Mass (kg)
RCS (m²)

Purposes: station

External: N2YO · Heavens-Above · Gunter

§ Orbital elements

Epoch: 2026-09-19T11:31:25.618368Z

Period
91.52 min
Inclination
51.6228°
Eccentricity
0.0008976
Mean motion
15.73504864 rev/d
Perigee alt
342.9 km
Apogee alt
354.9 km
Semi-major
6,727.0 km
B*
5.9955e-4
RAAN
174.3941°
Arg perigee
180.7732°
Mean anomaly
179.3254°
Rev number
3,507

§ Raw data

GXIBA-11 67685U 98067YB  26262.48015762  .00085832  00000+0  59955-3 0  99942 67685  51.6228 174.3941 0008976 180.7732 179.3254 15.73504864 35074

JSON: /api/v1/satellites/67685 · /tle

For live sub-satellite position, see the globe view (requires WebGL).

§ Visibility from observer

Set your observer location to see the next 7 days of passes ≥ 10°. The values pass through the URL so the page stays shareable.

No JS? Fill the form by hand. The geolocation button needs JavaScript.

§ Radio — SatNOGS DB

ModeDescriptionDownlinkUplink
MSK AX.100 Mode 5 Mode U - Transmitter 401.140 MHz

1 transmitter · refreshed weekly from db.satnogs.org